EHI
0 0 0 0 0 0 0 0 0 0 0 0 0 0 0 0 0 0 0 0 0 0 2 7 22 37 37 22 9 3 3 3 2 1 0 0 0 0 0 0 0 0 0 0 0 0 0 0 0
0 0 0 0 0 0 0 0 0 0 0 0 0 0 0 0 0 0 0 0 0 0 1 10 33 58 58 38 19 7 3 3 2 1 0 0 0 0 0 0 0 0 0 0 0 0 0 0 0
0 0 0 0 0 0 0 0 0 0 0 0 0 0 0 0 0 0 0 0 0 0 0 16 52 79 74 49 26 11 5 2 1 0 0 0 0 0 0 0 0 0 0 0 0 0 0 0 0
0 0 0 0 0 0 0 0 0 0 0 0 0 0 0 0 0 0 0 0 0 0 0 22 64 88 79 55 29 13 5 2 1 0 0 0 0 0 0 0 0 0 0 0 0 0 0 0 0
0 0 0 0 0 0 0 0 0 0 0 0 0 0 0 0 0 0 0 0 0 0 0 20 62 88 86 67 41 19 7 3 2 1 0 0 0 0 0 0 0 0 0 0 0 0 0 0 0
0 0 0 0 0 0 0 0 0 0 0 0 0 0 0 0 0 0 0 0 0 0 0 11 40 67 75 67 47 24 10 4 3 2 1 0 0 0 0 0 0 0 0 0 0 0 0 0 0
0 0 0 0 0 0 0 0 0 0 0 0 0 0 0 0 0 0 0 0 0 0 0 3 14 30 41 40 29 17 8 3 2 2 1 1 1 0 0 0 0 0 0 0 0 0 0 0 0
0 0 0 0 0 0 0 0 0 0 0 0 0 0 0 0 0 0 0 0 0 0 0 0 2 6 11 12 9 6 4 1 1 1 1 0 0 0 0 0 0 0 0 0 0 0 0 0 0
0 0 0 0 0 0 0 0 0 0 0 0 0 0 0 0 0 0 0 0 0 0 0 0 0 1 1 1 1 1 1 0 0 0 0 0 0 0 0 0 0 0 0 0 0 0 0 0 0
0 0 0 0 0 0 0 0 0 0 0 0 0 0 0 0 0 0 0 0 0 0 0 0 0 0 0 0 0 0 0 0 0 0 0 0 0 0 0 0 0 0 0 0 0 0 0 0 0
0 0 0 0 0 0 0 0 0 0 0 0 0 0 0 0 0 0 0 0 0 0 0 0 0 0 0 0 0 0 0 0 0 0 0 0 0 0 0 0 0 0 0 0 0 0 0 0 0
0 0 0 0 0 0 0 0 0 0 0 0 0 0 0 0 0 0 0 0 0 0 0 0 0 0 0 0 0 0 0 0 0 0 0 0 0 0 0 0 0 0 0 0 0 0 0 0 0
0 0 0 0 0 0 0 0 0 0 0 0 0 0 0 0 0 0 0 0 0 0 0 0 0 0 0 0 0 0 0 0 0 0 0 0 0 0 0 0 0 0 0 0 0 0 0 0 0
0 0 0 0 0 0 0 0 0 0 0 0 0 0 0 0 0 0 0 0 0 0 0 0 0 0 0 0 0 0 0 0 0 0 0 0 0 0 0 0 0 0 0 0 0 0 0 0 0
0 0 0 0 0 0 0 0 0 0 0 0 0 0 0 0 0 0 0 0 0 0 0 0 0 0 0 0 0 0 0 0 0 0 0 0 0 0 0 0 0 0 0 0 0 0 0 0 0
0 0 0 0 0 0 0 0 0 0 0 0 0 0 0 0 0 0 0 0 0 0 0 0 0 0 0 0 0 0 0 0 0 0 0 0 0 0 0 0 0 0 0 0 0 0 0 0 0
0 0 0 0 0 0 0 0 0 0 0 0 0 0 0 0 0 0 0 0 0 0 0 0 0 0 0 0 0 0 0 0 0 0 0 0 0 0 0 0 0 0 0 0 0 0 0 0 0
0 0 0 0 0 0 0 0 0 0 0 0 0 0 0 0 0 0 0 0 0 0 0 0 0 0 0 0 0 0 0 0 0 0 0 0 0 0 0 0 0 0 0 0 0 0 0 0 0
0 0 0 0 0 0 0 0 0 0 0 0 0 0 0 0 0 0 0 0 0 0 0 0 0 0 0 0 0 0 0 0 0 0 0 0 0 0 0 0 0 0 0 0 0 0 0 0 0
0 0 0 0 0 0 0 0 0 0 0 0 0 0 0 0 0 0 0 0 0 0 0 0 0 0 0 0 0 0 0 0 0 0 0 0 0 0 0 0 0 0 0 0 0 0 0 0 0
0 0 0 0 0 0 0 0 0 0 0 0 0 0 0 0 0 0 0 0 0 0 0 0 0 0 0 0 0 0 0 0 0 0 0 0 0 0 0 0 0 0 0 0 0 0 0 0 0
0 0 0 0 0 0 0 0 0 0 0 0 0 0 0 0 0 0 0 0 0 0 0 0 0 0 0 0 0 0 0 0 0 0 0 0 0 0 0 0 0 0 0 0 0 0 0 0 0
0 0 0 0 0 0 0 0 0 0 0 0 0 0 0 0 0 0 0 0 0 0 0 0 0 0 0 0 0 0 0 0 0 0 0 0 0 0 0 0 0 0 0 0 0 0 0 0 0
0 0 0 0 0 0 0 0 0 0 0 0 0 0 0 0 0 0 0 0 0 0 0 0 0 0 0 0 0 0 0 0 0 0 0 0 0 0 0 0 0 0 0 0 0 0 0 0 0
0 0 0 0 0 0 0 0 0 0 0 0 0 0 0 0 0 0 0 0 0 0 0 0 0 0 0 0 0 0 0 0 0 0 0 0 0 0 0 0 0 0 0 0 0 0 0 0 0
0 0 0 0 0 0 0 0 0 0 0 0 0 0 0 0 0 0 0 0 0 0 0 0 0 0 0 0 0 0 0 0 0 0 0 0 0 0 0 0 0 0 0 0 0 0 0 0 0
0 0 0 0 0 0 0 0 0 0 0 0 0 0 0 0 0 0 0 0 0 0 0 0 0 0 0 0 0 0 0 0 0 0 0 0 0 0 0 0 0 0 0 0 0 0 0 0 0
0 0 0 0 0 0 0 0 0 0 0 0 0 0 0 0 0 0 0 0 0 0 0 0 0 0 0 0 0 0 0 0 0 0 0 0 0 0 0 0 0 0 0 0 0 0 0 0 0
0 0 0 0 0 0 0 0 0 0 0 0 0 0 0 0 0 0 0 0 0 0 0 0 0 0 0 0 0 0 0 0 0 0 0 0 0 0 0 0 0 0 0 0 0 0 0 0 0
0 0 0 0 0 0 0 0 0 0 0 0 0 0 0 0 0 0 0 0 0 0 0 0 0 0 0 0 0 0 0 0 0 0 0 0 0 0 0 0 0 0 0 0 0 0 0 0 0
Wind_Speed
8 5 2 5 7 7 2 2 2 1 0 1 1 1 2 2 2 2 1 6 7 10 12 14 15 15 14 13 13 13 13 12 11 10 9 9 8 7 7 8 9 10 10 9 8 7 7 7 7
3 3 5 6 7 4 2 3 1 1 2 1 1 1 1 1 2 3 2 5 9 11 11 12 14 15 15 15 14 14 13 13 12 10 9 9 8 8 8 9 9 10 9 7 6 6 6 6 5
4 3 5 5 5 5 3 2 2 2 1 1 1 1 1 2 3 5 4 6 9 9 10 11 14 14 15 14 15 14 13 13 12 12 11 10 9 8 8 9 9 9 8 7 6 5 5 4 5
4 5 6 6 1 4 5 4 2 2 1 1 1 2 2 1 3 5 5 8 9 8 8 10 15 15 15 14 14 14 14 13 13 13 12 12 10 9 9 9 8 7 7 5 5 5 4 4 4
5 5 6 4 3 2 3 3 2 3 2 2 0 1 3 3 3 2 5 7 9 8 7 10 15 15 15 16 16 15 14 14 13 13 13 12 12 11 10 8 8 7 6 5 5 5 4 4 4
5 5 5 1 4 1 1 1 3 3 3 3 1 2 3 2 0 2 3 5 6 8 7 8 14 14 14 15 15 15 14 13 13 13 13 13 13 12 11 9 8 7 6 6 6 5 4 4 4
5 4 3 1 2 1 1 0 3 2 2 1 1 1 3 3 3 4 4 4 4 6 7 7 9 11 13 14 14 14 13 13 12 12 12 13 13 12 10 9 9 8 7 7 6 5 5 4 4
5 4 2 2 2 2 3 3 3 2 2 2 2 1 3 4 2 3 3 3 3 5 6 7 8 8 8 10 13 14 13 13 12 11 11 12 13 12 11 9 9 9 9 8 7 6 6 5 4
5 5 1 0 2 2 4 4 6 4 2 4 2 1 2 1 4 3 2 2 2 4 5 6 8 8 7 7 9 11 12 13 12 10 11 11 7 7 7 8 10 10 10 9 9 8 7 6 3
5 3 5 2 2 1 1 1 4 5 6 5 6 6 2 2 3 4 5 6 6 6 6 7 9 9 8 6 5 5 6 6 7 5 7 6 5 5 6 9 10 10 9 10 11 10 8 5 1
3 5 4 2 2 2 2 3 2 2 5 6 6 7 5 1 2 4 5 5 6 6 5 6 8 9 9 7 5 4 3 3 4 5 6 5 5 5 5 3 4 5 6 4 6 6 4 3 2
3 5 4 3 2 2 2 3 3 3 9 6 5 5 5 6 7 7 7 8 7 6 6 5 5 7 9 7 6 5 4 4 4 4 6 5 4 4 4 3 4 3 2 3 3 3 4 3 3
4 3 4 5 6 4 3 3 3 8 10 6 4 9 11 11 9 9 9 9 10 9 9 7 5 6 7 7 5 5 6 6 5 5 6 6 5 5 4 4 4 4 3 4 4 4 4 3 3
2 2 5 7 7 4 5 4 2 10 3 4 9 11 11 12 12 12 14 14 13 12 12 10 6 4 5 6 5 5 5 5 5 6 7 8 6 6 6 5 5 4 4 4 4 5 4 3 2
1 4 8 6 3 3 3 2 6 9 3 4 8 9 12 12 12 12 11 11 11 12 12 12 9 5 2 4 4 3 3 4 4 5 7 8 7 7 6 6 6 6 5 4 3 3 2 2 2
1 2 5 6 1 1 7 5 8 6 2 4 8 8 10 10 10 9 11 10 11 12 13 13 12 9 5 2 2 2 2 2 3 3 4 6 7 7 6 5 6 6 6 5 4 3 3 2 2
1 2 5 6 1 2 4 6 8 5 2 5 7 7 8 9 11 11 11 10 11 11 12 14 14 13 9 7 6 5 4 3 1 0 1 3 4 6 5 5 5 6 6 5 5 3 3 3 3
6 5 5 5 3 2 4 8 10 8 1 6 7 7 8 10 10 9 10 10 10 11 13 15 15 16 11 7 6 6 7 6 5 5 4 2 1 3 3 3 4 5 4 4 4 4 3 2 3
5 5 5 7 4 4 7 8 10 8 1 6 7 7 8 8 6 7 9 10 12 15 16 17 17 16 12 7 5 5 5 6 6 7 9 8 5 3 2 1 3 4 4 5 6 4 4 2 3
4 5 6 7 4 3 5 7 6 4 4 5 8 7 7 6 7 9 10 12 14 15 15 16 16 16 15 9 4 4 3 4 5 7 10 11 9 7 4 3 1 1 2 3 4 4 3 3 4
6 7 6 7 4 3 2 6 5 4 6 9 8 7 6 7 6 8 10 12 13 15 14 14 15 16 15 14 9 7 7 6 8 11 10 12 12 10 8 6 3 2 1 2 4 5 6 4 4
6 7 7 4 2 4 1 5 7 3 4 6 6 6 6 6 6 7 9 11 12 11 10 13 14 16 15 13 13 14 10 9 8 6 8 11 13 13 12 10 7 4 2 3 3 4 3 4 4
7 2 3 1 2 2 2 4 8 2 4 5 5 5 5 5 5 6 7 8 9 9 9 10 12 14 14 14 14 12 11 8 6 8 11 11 11 13 14 12 10 8 5 4 4 3 4 4 5
4 5 6 5 4 4 6 7 8 3 4 8 7 6 6 5 5 5 6 6 8 8 9 9 11 13 12 12 12 12 12 11 12 12 11 9 7 9 14 12 10 9 7 6 6 4 4 4 6
4 5 2 3 1 8 2 4 7 4 1 12 13 9 6 5 5 4 5 6 7 8 8 8 10 11 10 11 11 10 9 9 11 9 8 8 7 7 11 11 10 9 8 7 6 5 5 5 6
6 9 8 7 6 5 4 7 3 4 4 9 9 8 7 6 5 5 5 5 5 6 6 7 8 8 8 8 8 8 8 6 6 7 6 6 5 5 8 9 9 9 9 9 7 5 5 5 5
6 5 6 5 2 3 7 3 1 2 5 7 7 7 8 7 7 6 6 5 5 5 5 5 5 5 6 6 5 6 6 6 6 5 5 4 5 6 8 8 9 9 9 9 8 6 6 6 5
4 7 5 6 6 6 6 6 7 9 10 9 9 9 8 8 7 7 6 6 5 4 4 4 4 4 3 3 3 3 4 4 4 4 5 6 6 6 7 8 8 9 9 8 8 7 7 7 7
4 4 5 5 6 7 6 8 5 12 14 14 12 11 11 10 9 7 6 6 5 4 4 3 3 2 1 1 1 2 2 3 4 4 5 5 6 7 7 8 9 9 9 8 7 8 9 9 9
5 7 8 7 7 5 4 8 1 6 10 11 12 11 9 8 7 7 7 6 5 5 4 4 4 4 3 2 1 1 2 2 3 4 5 5 6 6 7 7 8 9 10 9 9 10 10 10 11
Wind_Direction
323 323 58 53 53 50 32 297 174 116 145 219 203 153 160 196 192 224 241 158 158 154 169 172 175 172 168 163 159 158 157 155 153 151 149 145 144 142 137 128 122 114 108 103 98 94 91 85 77
333 355 48 56 78 78 310 286 160 188 192 141 12 13 50 222 217 166 181 168 156 158 167 173 175 174 171 167 165 165 164 163 161 160 159 158 157 157 153 143 130 119 112 106 104 102 96 91 84
334 45 72 68 100 157 179 232 226 287 228 127 43 350 252 207 195 194 212 150 144 155 165 172 173 176 175 172 171 171 172 171 170 170 169 168 166 164 156 145 133 124 119 116 115 108 95 80 68
45 40 53 67 93 206 177 201 199 88 329 328 123 350 319 342 201 198 166 141 145 158 165 171 173 177 178 178 178 179 181 181 180 179 177 175 168 159 149 143 135 130 129 134 134 121 104 81 60
58 67 55 32 290 244 188 188 101 50 339 305 289 337 316 357 25 140 153 147 155 165 171 173 176 180 181 181 183 185 188 190 189 187 186 181 171 162 155 153 149 147 152 162 151 133 116 93 71
50 61 75 2 305 299 277 241 84 60 10 339 306 331 323 327 131 210 184 161 160 166 174 175 180 182 184 186 188 189 191 193 194 194 192 187 176 170 168 170 170 173 179 180 162 146 127 105 84
90 87 134 250 288 263 262 325 98 97 359 307 193 325 308 267 228 206 194 172 166 169 172 180 186 188 188 189 192 193 195 197 198 199 196 186 175 174 174 178 183 187 191 187 168 156 142 123 94
113 93 43 346 340 1 338 355 33 357 279 267 161 171 275 253 185 171 196 182 178 181 181 184 188 191 193 194 196 196 197 199 202 203 200 183 173 172 173 178 184 189 192 188 173 167 161 139 111
78 75 168 285 40 344 344 1 332 318 338 322 301 263 296 136 134 154 193 271 241 207 199 189 191 195 195 197 202 201 202 203 203 204 200 180 172 167 170 179 185 188 189 186 178 177 164 141 128
80 136 220 200 184 227 273 270 300 350 328 304 307 309 336 154 175 205 225 238 240 230 214 197 195 195 195 200 200 203 204 206 203 194 187 175 164 167 169 184 189 189 187 184 182 179 151 133 112
143 191 237 246 210 219 291 312 345 4 290 260 271 300 328 312 285 269 270 265 261 257 247 215 203 196 193 197 194 194 195 196 199 191 178 169 165 166 167 169 184 189 184 176 177 159 138 149 162
192 232 239 277 306 297 276 299 323 235 242 260 289 308 340 9 5 352 339 335 329 319 301 276 229 204 199 194 194 191 191 195 197 189 177 172 173 172 169 173 175 173 163 161 147 143 159 175 192
211 257 300 286 289 270 255 252 265 264 261 297 4 42 40 38 25 17 15 9 1 356 340 315 268 226 203 192 192 191 195 197 194 182 184 184 179 177 171 177 176 175 165 164 160 163 173 185 188
205 261 287 278 278 261 238 258 226 264 281 21 57 62 51 41 27 20 14 9 2 355 345 338 317 261 217 196 191 188 189 188 187 188 190 191 188 178 174 177 179 179 177 172 169 173 177 191 194
348 330 314 288 254 244 152 275 234 250 338 29 68 75 59 45 34 26 10 4 356 352 350 351 344 330 251 207 189 169 170 172 185 194 195 194 192 184 179 178 183 182 172 163 158 165 162 185 204
36 12 297 292 281 152 142 239 260 263 338 49 81 78 65 49 34 22 13 8 4 2 3 3 4 4 11 50 102 100 120 149 178 191 196 197 191 180 174 176 186 177 166 162 165 164 173 202 216
344 235 245 289 267 168 177 233 272 301 42 80 93 81 68 52 35 21 14 11 10 10 12 14 14 14 19 39 56 60 58 55 48 117 202 203 188 175 173 180 180 171 170 170 169 163 166 187 211
221 216 234 254 269 189 226 247 272 295 353 106 104 86 71 57 36 19 14 16 18 20 24 24 23 19 15 27 41 45 43 34 32 27 12 5 111 158 161 165 162 159 162 167 172 165 163 165 168
181 198 242 259 257 214 235 252 269 282 358 117 112 94 80 66 41 27 21 21 30 31 31 28 27 21 20 15 18 28 31 23 27 26 26 26 32 49 77 108 144 161 177 186 181 153 166 158 130
224 241 256 273 272 224 244 258 270 346 37 105 113 96 83 67 40 33 31 32 35 35 33 34 31 27 25 19 11 25 28 27 22 24 26 24 26 31 31 33 27 195 182 171 173 164 160 174 162
223 217 226 243 302 318 296 298 282 70 69 73 78 81 77 70 51 35 34 34 36 37 33 36 36 35 30 27 28 25 26 22 20 17 15 15 18 20 21 21 20 350 281 219 206 195 183 194 202
237 224 212 226 217 281 345 279 274 174 108 91 83 76 71 60 51 45 41 41 39 35 34 40 41 41 36 36 41 46 43 35 17 9 14 15 21 21 16 12 10 4 337 295 255 228 221 202 210
216 206 175 184 189 274 289 248 273 157 165 148 127 110 92 74 64 56 49 48 43 36 38 39 46 46 41 43 46 49 46 37 23 25 23 19 17 20 17 13 9 2 350 328 305 272 245 231 226
147 75 51 51 80 258 223 202 268 238 202 151 148 136 122 105 84 70 57 54 48 40 41 41 49 47 42 46 47 49 47 39 35 29 24 16 11 12 12 8 10 5 358 344 327 306 278 261 253
119 102 19 325 297 245 253 213 249 334 286 154 153 149 143 132 119 100 78 63 55 48 42 41 49 47 38 45 46 44 44 43 41 30 23 17 11 8 2 2 1 1 355 349 342 329 310 289 273
177 156 175 208 226 266 288 237 281 359 69 117 135 146 150 152 149 137 124 104 86 73 60 53 52 48 39 43 42 39 40 40 36 30 23 15 5 355 354 355 355 354 353 352 348 335 318 305 292
157 193 176 149 156 254 258 255 72 101 107 133 153 162 172 176 171 160 146 131 120 106 92 81 73 61 48 44 45 40 37 37 29 18 13 5 355 351 350 349 350 347 347 347 344 335 323 313 294
164 151 121 152 191 235 262 246 212 180 190 187 188 189 193 190 183 171 161 153 147 140 131 114 99 89 70 55 46 41 28 24 16 8 359 350 342 341 339 340 338 336 335 338 339 330 323 317 304
151 169 175 176 177 181 238 256 214 184 186 191 198 199 197 193 185 176 169 165 160 157 160 158 152 139 118 80 51 28 3 358 354 348 339 333 329 331 331 329 327 325 322 324 323 317 315 313 308
196 195 171 183 222 202 211 260 248 182 183 188 198 204 200 189 177 169 166 165 170 180 187 191 193 197 206 205 206 275 305 317 321 316 312 313 311 310 309 310 312 313 315 315 312 308 306 301 300